Вернуться в каталог

CZ-3C DEB

LostGTO
NORAD 40836·DEBRIS·🇨🇳 China

Запущен Oct 31, 2010 с Xichang Satellite Launch Center

Loading…

TLE

УстаревшееSource: Space-Track

Эпоха: Sep 13, 2015, 06:39 UTC

1 40836U 10057BD  15256.27727524  .00000037  00000-0  77284-3 0  9990
2 40836  20.2554  42.2767 7202022 189.6739 139.5847  2.17986037879168

Отслеживайте CZ-3C DEB в реальном времени с AllMySat

Download on the App Store